This demonstration page uses our WeatherBlox Daily Observations layout. Learn more.

Left ArrowRight Arrow

39.08367, -84.50855

Hourly Observations for July 6, 2020

Temp ( °F °C ) Dew Point ( °F °C ) Humidity (%) Winds ( mph kmh ) Pressure ( in mb ) Visibility ( mi km ) Precip ( " mm )
12:53 am 00:53 Mostly Clear 71 21.7 68 20 90 90 S 3 6 29.96 1014 7 11 N/A
1:53 am 01:53 Clear 75 23.9 69 20.6 82 82 N N/A 29.96 1014 8 13 N/A
2:53 am 02:53 Clear with Mist and Fog 71 21.7 68 20 90 90 NE 3 6 29.95 1014 6 10 N/A
3:53 am 03:53 Clear with Mist and Fog 69 20.6 67 19.4 93 93 N N/A 29.95 1014 4 6 N/A
4:53 am 04:53 Clear with Mist and Fog 70 21.1 68 20 93 93 N N/A 29.95 1014 4 6 N/A
5:53 am 05:53 Partly Cloudy with Mist and Fog 71 21.7 68 20 90 90 N N/A 29.96 1015 5 8 N/A
6:53 am 06:53 Partly Cloudy with Mist and Fog 73 22.8 70 21.1 90 90 N N/A 29.98 1015 6 10 N/A
7:53 am 07:53 Mostly Cloudy 75 23.9 69 20.6 82 82 N N/A 29.99 1016 7 11 N/A
8:53 am 08:53 Mostly Cloudy 78 25.6 71 21.7 79 79 SSW 5 7 30.01 1016 7 11 N/A
9:18 am 09:18 Mostly Cloudy with Nearby Thunderstorms 79 26.1 71 21.7 77 77 SW 6 9 30.01 1016 8 13 N/A
9:33 am 09:33 Mostly Cloudy with Thunderstorms 79 26.1 71 21.7 77 77 SW 7 11 30.03 1017 8 13 N/A
9:53 am 09:53 Mostly Cloudy with Thunderstorms 79 26.1 69 20.6 72 72 W 10 17 30.03 1017 10 16 N/A
10:15 am 10:15 Mostly Cloudy 77 25 69 20.6 77 77 VRB 6 9 30.03 1017 10 16 N/A
10:53 am 10:53 Mostly Cloudy with Light Rain 78 25.6 71 21.7 79 79 W 3 6 30.04 1017 10 16 0.00 0.00
11:53 am 11:53 Sunny 81 27.2 72 22.2 74 74 SSE 3 6 30.03 1017 10 16 0.00 0.00
12:53 pm 12:53 Sunny 85 29.4 75 23.9 72 72 SW 6 9 30.02 1017 10 16 N/A
1:53 pm 13:53 Sunny 88 31.1 72 22.2 59 59 S 7 11 30.00 1016 10 16 N/A
2:53 pm 14:53 Sunny 89 31.7 72 22.2 57 57 SW 3 6 29.99 1016 10 16 N/A
3:53 pm 15:53 Partly Cloudy 91 32.8 72 22.2 54 54 VRB 5 7 29.97 1015 10 16 N/A
4:53 pm 16:53 Partly Cloudy with Nearby Thunderstorms 92 33.3 71 21.7 51 51 E 5 7 29.95 1014 10 16 N/A
5:13 pm 17:13 Mostly Cloudy with Thunderstorms 90 32.2 69 20.6 50 50 N N/A 29.93 1013 10 16 N/A
5:38 pm 17:38 Cloudy with Strong Thunderstorms 79 26.1 68 20 69 69 NNW 20 31 29.97 1015 1 2 0.20 5.08
5:53 pm 17:53 Cloudy with Strong Thunderstorms 73 22.8 69 20.6 87 87 NNW 20 31 30.06 1018 1 2 0.65 16.51
5:55 pm 17:55 Cloudy with Strong Thunderstorms 73 22.8 69 20.6 87 87 W 15 24 30.02 1017 0 0 0.23 5.84
6:03 pm 18:03 Cloudy with Strong Thunderstorms 73 22.8 67 19.4 81 81 NW 23 37 30.03 1017 0 0 0.62 15.75
6:13 pm 18:13 Mostly Cloudy with Strong Thunderstorms 72 22.2 69 20.6 91 91 SSW 20 31 30.04 1017 1 1 0.95 24.13
6:24 pm 18:24 Cloudy with Strong Thunderstorms 71 21.7 69 20.6 94 94 S 17 28 30.03 1017 1 1 1.28 32.51
6:33 pm 18:33 Cloudy with Strong Thunderstorms 72 22.2 69 20.6 91 91 SSE 12 19 30.03 1017 1 2 1.42 36.07
6:53 pm 18:53 Cloudy with Thunderstorms 72 22.2 71 21.7 97 97 N 8 13 30.02 1017 1 1 1.59 40.39
7:00 pm 19:00 Cloudy with Thunderstorms 72 22.2 71 21.7 97 97 NNE 6 9 30.00 1016 7 11 0.00 0.00
7:33 pm 19:33 Partly Cloudy with Nearby Thunderstorms 72 22.2 72 22.2 100 100 N N/A 30.00 1016 7 11 0.01 0.25
7:53 pm 19:53 Partly Cloudy with Nearby Thunderstorms 72 22.2 71 21.7 97 97 NNW 3 6 29.99 1016 5 8 0.02 0.51
8:08 pm 20:08 Mostly Cloudy with Light Rain 72 22.2 72 22.2 100 100 N N/A 29.98 1015 4 6 0.03 0.76
8:53 pm 20:53 Mostly Cloudy with Light Rain 72 22.2 70 21.1 94 94 E 3 6 29.97 1015 7 11 0.06 1.52
9:53 pm 21:53 Mostly Clear 72 22.2 70 21.1 94 94 NE 5 7 29.98 1015 8 13 0.00 0.00
10:53 pm 22:53 Clear with Mist and Fog 71 21.7 70 21.1 96 96 S 5 7 30.01 1016 5 8 N/A
11:53 pm 23:53 Clear 71 21.7 70 21.1 96 96 S 5 7 30.02 1017 8 13 N/A

Powered by AerisWeather